Home   Weather   Fremont   Past weeks

Flag for USA Past Weather in Fremont, California, USA — Yesterday and Last 2 Weeks

Now
59 °F

Clear.


Feels Like: 59 °F
Forecast: 59 / 77 °F
Wind: No wind

Location: Moffett Field

Current Time: Aug 30, 2016 at 6:20:17 AM

Latest Report: Aug 30, 2016 at 5:56 AM


Visibility: 10 mi

Pressure: 30.02 "Hg

Humidity: 78%

Dew Point: 52 °F

Location of FremontLocation

Past Weather in Fremont — Graph

°F

Fremont Temperature Yesterday

Maximum temperature yesterday: 73 °F (at 3:56 PM)
Minimum temperature yesterday: 59 °F (at 5:56 AM)
Average temperature yesterday: 64 °F

High & Low Weather Summary for the Past Weeks

 TemperatureHumidityPressure
High78 °F (Aug 16, 3:56 PM)87% (Aug 16, 12:56 AM)30.14 "Hg (Aug 16, 12:56 AM)
Low59 °F (Aug 15, 4:56 AM)45% (Aug 26, 12:56 PM)29.80 "Hg (Aug 17, 5:56 PM)
Average66 °F71%29.97 "Hg
* Reported Aug 15 4:56 AM — Aug 30 4:56 AM, Fremont, Weather by CustomWeather, © 2016

Note: Actual official high and low records may vary slightly from our data, if they occured in-between our weather recording intervals... More about our weather records

Advertising

Fremont Weather History for the Previous 24 Hours

Scroll right to see more
 ConditionsComfort  
Time TempWeatherWind HumidityBarometerVisibility
4:56 AM
Tue, Aug 30
60 °FClear.No wind78%30.03 "Hg10 mi
3:56 AM62 °FClear.No wind73%30.03 "Hg10 mi
2:56 AM63 °FClear.No wind73%30.04 "Hg10 mi
1:56 AM63 °FClear.5 mph73%30.03 "Hg10 mi
12:56 AM63 °FClear.3 mph70%30.05 "Hg10 mi
11:56 PM
Mon, Aug 29
63 °FClear.3 mph68%30.05 "Hg10 mi
10:56 PM63 °FClear.No wind68%30.05 "Hg10 mi
9:56 PM63 °FClear.5 mph70%30.05 "Hg10 mi
8:56 PM64 °FClear.5 mph65%30.04 "Hg10 mi
7:56 PM66 °FSunny.8 mph61%30.03 "Hg10 mi
6:56 PM69 °FSunny.10 mph55%30.02 "Hg10 mi
5:56 PM73 °FSunny.14 mph55%30.02 "Hg10 mi
4:56 PM71 °FSunny.16 mph57%30.03 "Hg10 mi
3:56 PM73 °FSunny.15 mph53%30.04 "Hg10 mi
2:56 PM71 °FSunny.10 mph57%30.06 "Hg10 mi
1:56 PM71 °FSunny.13 mph57%30.08 "Hg10 mi
12:56 PM70 °FSunny.7 mph55%30.09 "Hg10 mi
11:56 AM67 °FSunny.8 mph61%30.12 "Hg10 mi
10:56 AM65 °FPartly sunny.6 mph63%30.13 "Hg10 mi
9:56 AM61 °FOvercast.7 mph72%30.14 "Hg10 mi
9:04 AM61 °FOvercast.No wind72%30.13 "Hg10 mi
8:56 AM61 °FOvercast.3 mph72%30.14 "Hg10 mi
7:56 AM59 °FOvercast.5 mph75%30.13 "Hg10 mi
6:56 AM59 °FOvercast.5 mph75%30.11 "Hg10 mi
Weather by CustomWeather, © 2016

See weather overviewHow to use our weather pages